Вернуться в каталог

STARLINK-30983

АктивенСвязьVLEO
NORAD 58514·PAYLOAD·🇺🇸 United States

Запущен Dec 7, 2023 с Cape Canaveral Space Force Station

Loading…

Ближайшие Пролёты (ближайшие 24 часа)

TLE

СвежийSource: CelesTrak SupGP

Эпоха: Sep 15, 2026, 02:30 UTC

1 58514C 23191G   26258.10465278  .00051757  00000+0  18742-2 0  2581
2 58514  43.0021 113.7510 0001524 272.7174 299.6342 15.27559944    12

Отслеживайте STARLINK-30983 в реальном времени с AllMySat

Download on the App Store